COSMOS 1867

Last updated on Wed Sep 17 2025 00:02:14 GMT+0000 (Coordinated Universal Time)

1 18187U 87060A 25259.55367854 -.00000032 00000+0 25551-4 0 9999 2 18187 65.0098 74.3543 0014158 262.9945 96.9530 14.31463657995002
UTC large
Height (km)
Speed (km/s)
/
Latitude / Longitude
Inclination (degrees)
Orbital Period (minutes)
Azimuth
Elevation
Range (km)
Doppler Factor

Next 0 passes for location: London (51.5072 / 0.1276)

Sorry there are no passes over London.